Regional Weather Roundup
Issued by NWS Midland/Odessa, TX

Skip options and go directly to product.
Home | Oldest Version | Previous Version | Current Version | All | Graphics & Text | Save Text | Print | Product List | Glossary On

Skip product version selection by date and time.   
172
ASUS44 KMAF 312001
RWRMAF
MIDLAND AREA WEATHER ROUNDUP
NATIONAL WEATHER SERVICE MIDLAND TX
300 PM CDT MON AUG 31 2015

...IN SOUTHWEST TEXAS AND SOUTHEAST NEW MEXICO...

CITY           SKY/WX    TMP DP  RH WIND       PRES   REMARKS
ALPINE         SUNNY     89  40  17 CALM      30.17F
ANDREWS        FAIR      89  53  29 SW8       30.06F
ARTESIA        SUNNY     93  52  24 SE17G24   30.02F
BIG SPRING     MOSUNNY   90  56  31 SE7       30.04F
CARLSBAD       SUNNY     95  48  20 SE13G24   30.01F
DRYDEN           N/A     96  58  27 S10       29.98F
FORT STOCKTON  SUNNY     93  48  21 S7        30.01F
GUAD PASS      SUNNY     88  49  25 MISG      30.19F
HOBBS          SUNNY     88  45  22 SE13      30.08F
MARFA          SUNNY     88  45  22 NE8       30.16F
MIDLAND AIRPK  SUNNY     92  52  25 S6G17     30.04F
MIDLAND INTL   SUNNY     92  55  28 S13       30.03F
ODESSA         SUNNY     92  51  24 S14       30.04F
PECOS          SUNNY     94  45  18 NE8       30.00F
PRESIDIO       NOT AVBL
SEMINOLE       SUNNY     91  47  21 S6G16     30.07F
SNYDER         MOSUNNY   91  56  31 SE13G20   30.03F
WINK           SUNNY     94  49  21 SE15      30.00F
$$
...OTHER STATIONS IN TEXAS...

CITY           SKY/WX    TMP DP  RH WIND       PRES   REMARKS
ABILENE        MOSUNNY   93  59  31 S8G22     30.00F
AMARILLO       SUNNY     88  50  27 S23       30.04F
AUSTIN         PTSUNNY   92  62  36 VRB5      29.97F
BROWNSVILLE    TSTM      78  75  90 NE9       29.97R
CORPUS CHRISTI LGT RAIN  79  72  79 N15       29.98F
DALLAS FTW     MOSUNNY   94  61  33 SE8G17    29.98F
DEL RIO        SUNNY     97  61  30 SE10G16   29.93F
EL PASO        MOSUNNY   94  46  19 VRB7      30.04F
HOUSTON INT    CLOUDY    85  72  65 SE8       30.01F
LUBBOCK        MOSUNNY   91  48  22 S18       30.05F
SAN ANGELO     MOSUNNY   94  58  29 SE9       29.99F
SAN ANTONIO    MOSUNNY   91  64  40 NE8       29.99F
WACO           MOSUNNY   93  64  38 S10       30.00F
WICHITA FALLS  NOT AVBL
$$
...OTHER LOCATIONS IN NEW MEXICO...

CITY           SKY/WX    TMP DP  RH WIND       PRES   REMARKS
ALAMAGORDO     SUNNY     91  46  21 W10       30.06F
ALBUQUERQUE    MOSUNNY   88  46  23 VRB7      30.14F
CANNON AFB     SUNNY     91  50  24 S14G20    30.05F
CLOVIS         SUNNY     91  50  24 MISG        N/A
HOLLOMAN AFB   SUNNY     92  48  21 VRB2      30.04F
ROSWELL        SUNNY     95  48  20 SE8       30.02
RUIDOSO        SUNNY     81  45  28 MISG      30.27F
SANTA FE       MOSUNNY   88  44  21 W15       30.18F
TRUTH OR CONSE CLOUDY    82  47  29 W17G36    30.12F
TUCUMCARI      SUNNY     94  50  22 SW8       29.99F
$$

USA.gov is the U.S. government's official web portal to all federal, state and local government web resources and services.